Location: Goldmont Forest
(38.0233°N, 120.2524°W)
Time: 07:58:44
(UTC+00:00)

IRIDIUM 106 - Pass Details

Date: 08 November 2024
Orbit: 776 x 779 km, 86.4° (Epoch: 06 December)

Event Time Altitude Azimuth Distance (km) Brightness Sun altitude
Rises 13:13:35 0° 21° (NNE) 3,265 7.7 -16.3°
Reaches altitude 10° 13:17:39 10° 52° (NE) 2,331 7.4 -15.5°
Maximum altitude 13:19:35 12° 74° (ENE) 2,192 7.7 -15.1°
Drops below altitude 10° 13:21:31 10° 96° (E) 2,325 8.2 -14.8°
Sets 13:25:31 0° 127° (SE) 3,245 8.8 -14.0°
